Карл-Маркс-Штадт

Germany     50˚48′00″N   12˚54′00″E
temp.,
°C
wind,
m/s
gust,
m/s
humid.,
%
clouds,
%
prec.,
mm/h
press.,
hPa
HPBL,
m
1 december, tue
tue101:00ssw386257 0.0 1019270
04:00+1˚ssw41178100 0.2 1017453
07:00ssw3883100 0.4 1017424
10:00+1˚s257592 0.0 1017347
13:00+2˚sse367590 0.0 1017408
16:00se2377100 0.0 1018112
19:00−2˚sse248192 0.0 1020123
22:00−2˚sse238322 0.0 102172
2 december, wed
wed201:00−2˚se228520 0.0 102272
04:00−3˚se26850 0.0 1021182
07:00−3˚se27860 0.0 1021250
10:00−2˚sse38710 0.0 1020379
13:00se38650 0.0 1018506
16:00−3˚sse278124 0.0 1016459
19:00−3˚sse287229 0.0 1015475
22:00−3˚sse2868100 0.0 1014443
3 december, thu
thu301:00−2˚s2568100 0.0 1013309
04:00−4˚sse257731 0.0 1011160
07:00−4˚s377938 0.0 1011349
10:00−2˚s3769100 0.0 1010488
13:00s3565100 0.0 1007723
16:00−2˚s2576100 0.0 1006171
19:00−3˚sse387977 0.0 1004306
22:00−3˚sse268139 0.0 1003247
4 december, fri
fri401:00−3˚sse3108119 0.0 1001318
04:00−3˚sse38776 0.0 998221
07:00−2˚se4107921 0.0 996248
10:00+1˚se51282100 0.0 995358
13:00+2˚sse51077100 0.0 993356
16:00−1˚sse359158 0.0 993118
19:00se5148558 0.0 992288
22:00sse41480100 0.0 992439
5 december, sat
sat501:00s2488100 0.0 992103
04:00s2391100 0.0 99374
07:00w2293100 0.0 99464
10:00+1˚ne1285100 0.0 994118
13:00+4˚ene148692 0.0 993203
16:00+4˚sse288753 0.0 992333
19:00+5˚sse6178375 0.0 993762
22:00+2˚wsw2493100 0.0 995108